CW1238 Weather Reports


Display with metric or nautical units.
time (UTC)temp
F
wind
direction
speed
MPH
gust
MPH
rain 1hr
in
rain 24hr
in
rain mn
in
humidity
%
barometer
mb
20260510192132 67 227 4.0 4.0 0.00 0.00 0.00 31 1056.5
20260510191629 65 315 5.0 6.0 0.00 0.00 0.00 30 1056.5
20260510191126 66 255 6.0 10.0 0.00 0.00 0.00 29 1056.6
20260510190623 65 259 4.0 7.0 0.00 0.00 0.00 31 1056.7
20260510190120 65 348 2.0 6.0 0.00 0.00 0.00 31 1056.5
20260510185616 65 271 1.0 8.0 0.00 0.00 0.00 34 1056.7
20260510185115 66 303 8.0 11.0 0.00 0.00 0.00 30 1056.3
20260510184611 64 281 3.0 4.0 0.00 0.00 0.00 33 1056.6
20260510184107 64 208 7.0 9.0 0.00 0.00 0.00 31 1056.8
20260510183602 66 318 4.0 9.0 0.00 0.00 0.00 30 1056.7
20260510183058 66 253 2.0 3.0 0.00 0.00 0.00 31 1056.7
20260510182556 64 184 4.0 6.0 0.00 0.00 0.00 32 1056.7
20260510182055 65 292 1.0 3.0 0.00 0.00 0.00 31 1056.8
20260510181554 63 319 2.0 8.0 0.00 0.00 0.00 34 1056.9
20260510181049 63 279 6.0 10.0 0.00 0.00 0.00 33 1057.2
20260510180546 64 288 3.0 8.0 0.00 0.00 0.00 31 1057.2
20260510180044 64 296 4.0 11.0 0.00 0.00 0.00 33 1057.3
20260510175539 64 24 4.0 7.0 0.00 0.00 0.00 31 1057.2
20260510175035 64 268 4.0 7.0 0.00 0.00 0.00 34 1057.1
20260510174533 63 329 3.0 7.0 0.00 0.00 0.00 34 1057.3
20260510174030 64 353 3.0 8.0 0.00 0.00 0.00 32 1057.2
20260510173525 64 331 4.0 7.0 0.00 0.00 0.00 31 1057.5
20260510173022 63 211 3.0 7.0 0.00 0.00 0.00 33 1057.2
20260510172518 63 14 2.0 4.0 0.00 0.00 0.00 33 1057.3
20260510172015 63 323 3.0 4.0 0.00 0.00 0.00 34 1057.3
20260510171511 64 291 3.0 10.0 0.00 0.00 0.00 33 1057.4
20260510171008 63 285 3.0 6.0 0.00 0.00 0.00 34 1057.6
20260510170505 62 258 6.0 8.0 0.00 0.00 0.00 35 1057.4
20260510170000 60 236 2.0 7.0 0.00 0.00 0.00 34 1057.5
20260510165452 61 309 7.0 11.0 0.00 0.00 0.00 35 1057.5
20260510164948 62 255 4.0 9.0 0.00 0.00 0.00 32 1057.8
20260510164445 63 288 6.0 9.0 0.00 0.00 0.00 32 1057.5
20260510163941 61 304 4.0 6.0 0.00 0.00 0.00 32 1057.6
20260510163436 61 205 4.0 9.0 0.00 0.00 0.00 34 1057.7
20260510162931 61 258 3.0 8.0 0.00 0.00 0.00 32 1057.6
20260510162428 62 281 5.0 8.0 0.00 0.00 0.00 33 1057.5
20260510161924 61 227 2.0 6.0 0.00 0.00 0.00 32 1057.5
20260510161420 61 18 5.0 8.0 0.00 0.00 0.00 32 1057.4
20260510160918 60 290 4.0 7.0 0.00 0.00 0.00 34 1057.7
20260510160415 59 196 3.0 9.0 0.00 0.00 0.00 34 1057.5
20260510155913 61 281 4.0 6.0 0.00 0.00 0.00 32 1057.4
20260510155410 60 291 2.0 7.0 0.00 0.00 0.00 34 1057.4
20260510154907 62 261 4.0 8.0 0.00 0.00 0.00 38 1057.5
20260510154403 61 8 3.0 8.0 0.00 0.00 0.00 37 1057.4
20260510153856 61 227 4.0 6.0 0.00 0.00 0.00 34 1057.5
20260510153353 61 261 2.0 8.0 0.00 0.00 0.00 33 1057.4
20260510152850 60 264 3.0 4.0 0.00 0.00 0.00 33 1057.7
20260510152347 60 274 3.0 7.0 0.00 0.00 0.00 34 1057.5
20260510151843 60 116 2.0 4.0 0.00 0.00 0.00 36 1057.4
20260510151341 59 306 5.0 9.0 0.00 0.00 0.00 34 1057.6
20260510150837 59 285 6.0 15.0 0.00 0.00 0.00 36 1057.5
20260510150333 58 274 4.0 8.0 0.00 0.00 0.00 35 1057.6
20260510145829 59 212 7.0 11.0 0.00 0.00 0.00 35 1057.5
20260510145325 59 199 3.0 13.0 0.00 0.00 0.00 35 1057.6
20260510144822 59 296 4.0 6.0 0.00 0.00 0.00 37 1057.5
20260510144319 59 288 3.0 7.0 0.00 0.00 0.00 35 1057.6
20260510143819 58 289 4.0 6.0 0.00 0.00 0.00 36 1057.5
20260510143315 57 312 2.0 6.0 0.00 0.00 0.00 35 1057.4
20260510142812 58 257 8.0 10.0 0.00 0.00 0.00 35 1057.4
20260510142309 58 278 3.0 4.0 0.00 0.00 0.00 38 1057.4
20260510141806 57 279 3.0 6.0 0.00 0.00 0.00 37 1057.4
20260510141303 57 325 4.0 6.0 0.00 0.00 0.00 37 1057.5
20260510140800 57 72 3.0 6.0 0.00 0.00 0.00 38 1057.3
20260510140250 56 215 4.0 8.0 0.00 0.00 0.00 39 1057.5
20260510135744 55 256 2.0 6.0 0.00 0.00 0.00 39 1057.4
20260510135240 55 238 4.0 6.0 0.00 0.00 0.00 39 1057.5
20260510134738 55 225 2.0 4.0 0.00 0.00 0.00 43 1057.5
20260510134235 54 241 3.0 4.0 0.00 0.00 0.00 41 1057.5
20260510133730 53 222 2.0 7.0 0.00 0.00 0.00 42 1057.6
20260510133226 52 249 3.0 4.0 0.00 0.00 0.00 42 1057.5
20260510132722 51 198 2.0 4.0 0.00 0.00 0.00 45 1057.4
20260510132220 51 225 4.0 6.0 0.00 0.00 0.00 45 1057.6
20260510131717 51 219 2.0 8.0 0.00 0.00 0.00 46 1057.6
20260510131215 50 281 2.0 3.0 0.00 0.00 0.00 48 1057.5
20260510130711 50 258 1.0 2.0 0.00 0.00 0.00 48 1057.5
20260510130209 50 229 2.0 3.0 0.00 0.00 0.00 50 1057.4
20260510125704 49 183 1.0 3.0 0.00 0.00 0.00 49 1057.4
20260510125201 48 271 1.0 3.0 0.00 0.00 0.00 50 1057.4
20260510124657 47 213 1.0 1.0 0.00 0.00 0.00 55 1057.4
20260510124155 46 183 0.0 1.0 0.00 0.00 0.00 55 1057.4
20260510123649 45 214 1.0 2.0 0.00 0.00 0.00 56 1057.4
20260510123146 44 188 1.0 3.0 0.00 0.00 0.00 57 1057.4
20260510122642 43 204 1.0 1.0 0.00 0.00 0.00 59 1057.4
20260510122138 42 199 1.0 2.0 0.00 0.00 0.00 59 1057.3
20260510121635 42 212 2.0 2.0 0.00 0.00 0.00 60 1057.4
20260510121132 42 174 0.0 0.0 0.00 0.00 0.00 60 1057.3
20260510120630 42 198 0.0 0.0 0.00 0.00 0.00 60 1057.2
20260510120125 40 207 0.0 0.0 0.00 0.00 0.00 62 1057.1
20260510115622 39 200 0.0 0.0 0.00 0.00 0.00 64 1057.1
20260510115120 38 195 0.0 0.0 0.00 0.00 0.00 66 1057.0
20260510114615 37 194 0.0 0.0 0.00 0.00 0.00 68 1056.8
20260510114111 37 194 0.0 0.0 0.00 0.00 0.00 71 1056.8
20260510113607 36 193 0.0 0.0 0.00 0.00 0.00 74 1056.9
20260510113105 35 196 0.0 0.0 0.00 0.00 0.00 70 1056.7
20260510112601 36 195 0.0 0.0 0.00 0.00 0.00 70 1056.8
20260510112057 36 197 0.0 0.0 0.00 0.00 0.00 69 1056.8
20260510111554 35 198 0.0 0.0 0.00 0.00 0.00 70 1056.8
20260510111050 35 200 0.0 0.0 0.00 0.00 0.00 71 1056.7
20260510110546 35 188 0.0 0.0 0.00 0.00 0.00 71 1056.8
20260510110043 35 194 0.0 0.0 0.00 0.00 0.00 71 1056.8
20260510105538 35 197 0.0 0.0 0.00 0.00 0.00 72 1056.7
20260510105033 35 200 0.0 0.0 0.00 0.00 0.00 72 1056.8
20260510104530 35 194 0.0 0.0 0.00 0.00 0.00 73 1056.8
20260510104026 35 195 0.0 0.0 0.00 0.00 0.00 72 1056.7
20260510103518 35 195 0.0 0.0 0.00 0.00 0.00 71 1056.5
20260510103015 36 190 0.0 0.0 0.00 0.00 0.00 70 1056.5
20260510102510 36 193 0.0 0.0 0.00 0.00 0.00 70 1056.5
20260510102007 36 202 0.0 0.0 0.00 0.00 0.00 70 1056.2
20260510101504 35 195 0.0 0.0 0.00 0.00 0.00 74 1056.3
20260510101003 35 198 0.0 0.0 0.00 0.00 0.00 74 1056.3
20260510100458 35 201 0.0 0.0 0.00 0.00 0.00 76 1056.4
20260510095955 35 194 0.0 0.0 0.00 0.00 0.00 77 1056.2
20260510095450 36 196 0.0 0.0 0.00 0.00 0.00 75 1056.1
20260510094949 37 199 0.0 0.0 0.00 0.00 0.00 73 1055.9
20260510094444 37 210 0.0 0.0 0.00 0.00 0.00 72 1056.0
20260510093941 37 215 0.0 0.0 0.00 0.00 0.00 73 1055.9
20260510093436 37 202 0.0 0.0 0.00 0.00 0.00 73 1055.8
20260510092933 37 196 0.0 0.0 0.00 0.00 0.00 73 1055.8
20260510092431 37 197 0.0 0.0 0.00 0.00 0.00 73 1055.7
20260510091930 37 203 0.0 0.0 0.00 0.00 0.00 71 1055.5
20260510091428 38 195 0.0 0.0 0.00 0.00 0.00 69 1055.5
20260510090924 37 188 0.0 0.0 0.00 0.00 0.00 69 1055.7
20260510090421 38 195 0.0 0.0 0.00 0.00 0.00 68 1055.5
20260510085916 39 203 0.0 0.0 0.00 0.00 0.00 65 1055.5
20260510085411 39 207 0.0 0.0 0.00 0.00 0.00 65 1055.4
20260510084907 39 207 0.0 0.0 0.00 0.00 0.00 65 1055.5
20260510084405 39 196 0.0 0.0 0.00 0.00 0.00 64 1055.3
20260510083901 40 196 0.0 0.0 0.00 0.00 0.00 62 1055.4
20260510083358 40 196 0.0 0.0 0.00 0.00 0.00 61 1055.2
20260510082853 39 191 0.0 0.0 0.00 0.00 0.00 61 1054.9
20260510082351 40 190 0.0 0.0 0.00 0.00 0.00 61 1054.9
20260510081849 41 187 0.0 0.0 0.00 0.00 0.00 59 1055.1
20260510081345 41 184 0.0 0.0 0.00 0.00 0.00 58 1054.9
20260510080842 42 179 0.0 0.0 0.00 0.00 0.00 57 1055.1
20260510080337 42 176 0.0 0.0 0.00 0.00 0.00 55 1054.8
20260510075834 42 186 0.0 0.0 0.00 0.00 0.00 55 1054.9
20260510075332 43 189 0.0 0.0 0.00 0.00 0.00 55 1054.6
20260510074828 44 26 0.0 1.0 0.00 0.00 0.00 53 1054.7
20260510074326 44 194 0.0 1.0 0.00 0.00 0.00 53 1054.7
20260510073822 45 127 0.0 1.0 0.00 0.00 0.00 52 1054.4
20260510073318 45 302 1.0 2.0 0.00 0.00 0.00 51 1054.7
20260510072814 45 254 1.0 1.0 0.00 0.00 0.00 51 1054.6
20260510072311 46 310 1.0 2.0 0.00 0.00 0.00 49 1054.6
20260510071807 46 248 1.0 2.0 0.00 0.00 0.00 49 1054.5
20260510071303 46 236 1.0 1.0 0.00 0.00 0.00 50 1054.4
20260510070803 46 205 0.0 1.0 0.00 0.00 0.00 48 1054.4
20260510070259 46 270 1.0 2.0 0.00 0.00 0.00 49 1054.5
20260510065759 46 231 0.0 2.0 0.00 0.00 0.00 49 1054.4
20260510065255 46 197 2.0 2.0 0.00 0.00 0.00 48 1054.4
20260510064752 46 226 1.0 1.0 0.00 0.00 0.00 49 1054.3
20260510064251 46 252 1.0 2.0 0.00 0.00 0.00 48 1054.3
20260510063746 46 204 0.0 2.0 0.00 0.00 0.00 48 1054.3
20260510063242 46 210 1.0 2.0 0.00 0.00 0.00 48 1054.4
20260510062739 46 229 2.0 2.0 0.00 0.00 0.00 48 1054.2
20260510062235 46 213 1.0 2.0 0.00 0.00 0.00 48 1054.4
20260510061730 46 220 1.0 2.0 0.00 0.00 0.00 47 1054.3
20260510061228 46 234 0.0 2.0 0.00 0.00 0.00 48 1054.2
20260510060724 46 200 1.0 2.0 0.00 0.00 0.00 48 1054.2
20260510060221 46 192 1.0 1.0 0.00 0.00 0.00 48 1054.1
20260510055717 46 277 1.0 2.0 0.00 0.00 0.00 47 1054.3
20260510055216 46 197 1.0 2.0 0.00 0.00 0.00 47 1054.1
20260510054715 46 282 0.0 1.0 0.00 0.00 0.00 47 1054.0
20260510054211 46 211 1.0 2.0 0.00 0.00 0.00 46 1054.0
20260510053706 47 259 1.0 2.0 0.00 0.00 0.00 46 1054.0
20260510053203 47 282 1.0 2.0 0.00 0.00 0.00 46 1054.0
20260510052658 46 220 1.0 1.0 0.00 0.00 0.00 46 1053.6
20260510052155 47 217 1.0 1.0 0.00 0.00 0.00 45 1053.7
20260510051650 47 198 0.0 1.0 0.00 0.00 0.00 45 1053.7
20260510051147 47 332 1.0 2.0 0.00 0.00 0.00 45 1053.5
20260510050645 47 223 1.0 2.0 0.00 0.00 0.00 45 1053.5
20260510050142 47 197 1.0 1.0 0.00 0.00 0.00 45 1053.6
20260510045638 47 188 1.0 1.0 0.00 0.00 0.00 45 1053.5
20260510045135 47 189 1.0 1.0 0.00 0.00 0.00 44 1053.4
20260510044631 47 169 1.0 2.0 0.00 0.00 0.00 45 1053.5
20260510044129 47 246 0.0 0.0 0.00 0.00 0.00 45 1053.5
20260510043624 47 232 0.0 1.0 0.00 0.00 0.00 45 1053.3
20260510043121 47 264 2.0 2.0 0.00 0.00 0.00 44 1053.1
20260510042619 47 236 1.0 2.0 0.00 0.00 0.00 45 1053.3
20260510042114 47 234 0.0 0.0 0.00 0.00 0.00 43 1053.1
20260510041612 48 235 1.0 1.0 0.00 0.00 0.00 43 1053.2
20260510041109 48 258 1.0 1.0 0.00 0.00 0.00 42 1053.1
20260510040606 48 240 1.0 1.0 0.00 0.00 0.00 43 1052.9
20260510035558 46 245 0.0 0.0 0.00 0.00 0.00 45 1052.9
20260510035057 46 199 0.0 0.0 0.00 0.00 0.00 47 1052.9
20260510034556 47 188 0.0 0.0 0.00 0.00 0.00 45 1052.9
20260510034053 47 210 0.0 0.0 0.00 0.00 0.00 43 1052.7
20260510033548 48 263 0.0 0.0 0.00 0.00 0.00 42 1052.6
20260510033046 48 232 0.0 0.0 0.00 0.00 0.00 41 1052.7
20260510032543 48 224 0.0 0.0 0.00 0.00 0.00 42 1052.7
20260510032038 48 220 0.0 0.0 0.00 0.00 0.00 43 1052.7
20260510031533 49 212 0.0 0.0 0.00 0.00 0.00 41 1052.3
20260510031029 49 228 0.0 1.0 0.00 0.00 0.00 40 1052.3
20260510030526 49 241 1.0 1.0 0.00 0.00 0.00 40 1052.5
20260510030023 49 216 0.0 1.0 0.00 0.00 0.00 39 1052.2
20260510025520 50 212 0.0 0.0 0.00 0.00 0.00 39 1052.0
20260510025017 49 207 0.0 0.0 0.00 0.00 0.00 39 1052.2
20260510024514 49 205 0.0 0.0 0.00 0.00 0.00 41 1052.0
20260510024010 50 194 0.0 1.0 0.00 0.00 0.00 38 1051.8
20260510023506 51 207 0.0 1.0 0.00 0.00 0.00 38 1051.6
20260510023004 52 253 1.0 1.0 0.00 0.00 0.00 37 1051.6
20260510022502 52 188 1.0 1.0 0.00 0.00 0.00 36 1051.5
20260510022002 52 226 1.0 2.0 0.00 0.00 0.00 36 1051.4
20260510021500 53 286 0.0 1.0 0.00 0.00 0.00 37 1051.3
20260510020956 53 241 1.0 2.0 0.00 0.00 0.00 35 1051.1
20260510020451 53 251 1.0 1.0 0.00 0.00 0.00 36 1050.9
20260510015946 54 218 0.0 2.0 0.00 0.00 0.00 35 1050.8
20260510015443 54 192 2.0 2.0 0.00 0.00 0.00 34 1050.7
20260510014938 54 241 2.0 3.0 0.00 0.00 0.00 35 1050.6
20260510014436 54 192 1.0 2.0 0.00 0.00 0.00 34 1050.5
20260510013932 55 250 1.0 2.0 0.00 0.00 0.00 35 1050.3
20260510013427 55 227 2.0 3.0 0.00 0.00 0.00 33 1050.2
20260510012923 56 315 2.0 3.0 0.00 0.00 0.00 33 1050.2
20260510012418 56 235 1.0 4.0 0.00 0.00 0.00 32 1050.2
20260510011913 56 358 3.0 3.0 0.00 0.00 0.00 31 1050.2
20260510011408 56 333 3.0 3.0 0.00 0.00 0.00 31 1050.0
20260510010904 57 220 1.0 3.0 0.00 0.00 0.00 31 1050.0
20260510010402 57 357 2.0 6.0 0.00 0.00 0.00 30 1049.7
20260510005858 57 245 1.0 4.0 0.00 0.00 0.00 31 1049.8
20260510005355 57 205 1.0 2.0 0.00 0.00 0.00 32 1049.7
20260510004852 58 228 1.0 3.0 0.00 0.00 0.00 30 1049.7
20260510004350 58 243 2.0 6.0 0.00 0.00 0.00 30 1049.4
20260510003847 58 280 2.0 3.0 0.00 0.00 0.00 30 1049.5
20260510003344 59 327 3.0 6.0 0.00 0.00 0.00 31 1049.4
20260510002842 59 217 2.0 4.0 0.00 0.00 0.00 30 1049.3
20260510002340 59 335 2.0 3.0 0.00 0.00 0.00 30 1049.0
20260510001836 59 293 1.0 3.0 0.00 0.00 0.00 30 1049.0
20260510001335 59 338 1.0 3.0 0.00 0.00 0.00 30 1048.9
20260510000831 59 341 4.0 6.0 0.00 0.00 0.00 29 1048.9
20260510000328 59 311 5.0 9.0 0.00 0.00 0.00 27 1048.9
20260509235825 60 203 2.0 4.0 0.00 0.00 0.00 30 1048.9
20260509235321 60 236 2.0 3.0 0.00 0.00 0.00 29 1048.8
20260509234817 60 241 2.0 4.0 0.00 0.00 0.00 29 1048.7
20260509234314 60 208 3.0 7.0 0.00 0.00 0.00 29 1048.7
20260509233812 61 301 2.0 6.0 0.00 0.00 0.00 28 1048.7
20260509233310 61 236 2.0 11.0 0.00 0.00 0.00 27 1048.6
20260509232805 61 335 2.0 7.0 0.00 0.00 0.00 28 1048.4
20260509232306 62 168 1.0 3.0 0.00 0.00 0.00 28 1048.4
20260509231759 61 324 1.0 3.0 0.00 0.00 0.00 27 1048.4
20260509231256 62 347 2.0 4.0 0.00 0.00 0.00 27 1048.4
20260509230754 62 329 3.0 6.0 0.00 0.00 0.00 28 1048.4
20260509230251 62 208 5.0 7.0 0.00 0.00 0.00 26 1048.1
20260509225745 62 241 2.0 8.0 0.00 0.00 0.00 27 1048.1
20260509225242 62 277 2.0 8.0 0.00 0.00 0.00 26 1048.1
20260509224738 62 341 4.0 9.0 0.00 0.00 0.00 26 1047.9
20260509224236 63 115 3.0 4.0 0.00 0.00 0.00 28 1047.8
20260509223732 62 289 6.0 9.0 0.00 0.00 0.00 27 1048.0
20260509223229 63 301 2.0 4.0 0.00 0.00 0.00 28 1048.0
20260509222726 63 220 1.0 8.0 0.00 0.00 0.00 30 1047.8
20260509222221 63 212 2.0 6.0 0.00 0.00 0.00 28 1047.5
20260509221717 63 345 2.0 7.0 0.00 0.00 0.00 29 1047.7
20260509221213 63 308 4.0 8.0 0.00 0.00 0.00 27 1047.5
20260509220709 63 315 4.0 7.0 0.00 0.00 0.00 28 1047.6
20260509220206 64 312 3.0 7.0 0.00 0.00 0.00 26 1047.3
20260509215701 63 344 2.0 9.0 0.00 0.00 0.00 29 1047.4
20260509215158 63 304 7.0 10.0 0.00 0.00 0.00 26 1047.3
20260509214656 63 277 3.0 8.0 0.00 0.00 0.00 28 1047.4
20260509214152 64 350 6.0 9.0 0.00 0.00 0.00 28 1047.3
20260509213649 63 344 4.0 7.0 0.00 0.00 0.00 29 1047.2
20260509213139 63 320 3.0 6.0 0.00 0.00 0.00 28 1047.4
20260509212637 64 322 3.0 9.0 0.00 0.00 0.00 30 1047.2
20260509212133 63 169 1.0 7.0 0.00 0.00 0.00 30 1047.2
20260509211629 62 264 4.0 7.0 0.00 0.00 0.00 30 1047.3
20260509211126 63 308 3.0 4.0 0.00 0.00 0.00 30 1047.2
20260509210623 63 247 2.0 4.0 0.00 0.00 0.00 29 1046.8
20260509210120 64 138 3.0 4.0 0.00 0.00 0.00 29 1046.7
20260509205614 64 295 4.0 10.0 0.00 0.00 0.00 30 1046.9
20260509205109 64 265 4.0 7.0 0.00 0.00 0.00 29 1046.8
20260509204606 64 295 4.0 9.0 0.00 0.00 0.00 28 1046.8
20260509204103 65 349 4.0 13.0 0.00 0.00 0.00 29 1046.9
20260509203558 65 324 2.0 6.0 0.00 0.00 0.00 33 1046.6
20260509203057 65 305 5.0 7.0 0.00 0.00 0.00 30 1046.7
20260509202551 64 322 2.0 7.0 0.00 0.00 0.00 33 1046.5
20260509202047 65 9 6.0 9.0 0.00 0.00 0.00 31 1046.6
20260509201542 64 344 5.0 7.0 0.00 0.00 0.00 31 1046.5
20260509201040 64 355 2.0 7.0 0.00 0.00 0.00 35 1046.7
20260509200539 64 22 3.0 7.0 0.00 0.00 0.00 33 1046.8
20260509200036 64 310 4.0 4.0 0.00 0.00 0.00 33 1046.5
20260509195531 64 22 5.0 7.0 0.00 0.00 0.00 32 1046.4
20260509195026 64 275 3.0 10.0 0.00 0.00 0.00 32 1046.5
20260509194521 64 11 6.0 10.0 0.00 0.00 0.00 33 1046.4
20260509194018 64 328 4.0 7.0 0.00 0.00 0.00 35 1046.3
20260509193513 63 141 3.0 9.0 0.00 0.00 0.00 32 1046.4
20260509193010 64 317 6.0 10.0 0.00 0.00 0.00 32 1046.4
20260509192506 64 290 2.0 10.0 0.00 0.00 0.00 35 1046.4